Winnemucca, NV

7:02 PM PDT on July 26, 2017 (GMT -0700)
Winnemucca Municipal

Weather History for KWMC - December, 2013

Change the Weather History Date:

Saturday, December 28, 2013

  Actual Average Record
Temperature  
Mean Temperature 27 °F 29 °F  
Max Temperature 43 °F 40 °F 62 °F (2011)
Min Temperature 11 °F 17 °F -14 °F (1988)
Degree Days  
Heating Degree Days 38 36  
Month to date heating degree days 1281 991  
Since 1 July heating degree days 2826 2559  
Cooling Degree Days 0 0  
Month to date cooling degree days 0 0  
Year to date cooling degree days 762 541  
Moisture  
Dew Point 20 °F    
Average Humidity 77    
Maximum Humidity 100    
Minimum Humidity 53    
Precipitation  
Precipitation 0.00 in 0.04 in 0.50 in (1951)
Month to date precipitation 0.61 0.84  
Year to date precipitation 5.72 8.19  
Snow  
Snow 0.00 in 0.20 in 1.50 in (1884)
Month to date snowfall 10.2 4.8  
Since 1 July snowfall 16.8 8.3  
Snow Depth 2.00 in    
Sea Level Pressure  
Sea Level Pressure 30.34 in    
Wind  
Wind Speed 4 mph (NW)    
Max Wind Speed 12 mph    
Max Gust Speed 15 mph    
Visibility 9 miles    
Events      
T = Trace of Precipitation, MM = Missing Value Source: NWS Daily Summary

Daily Weather History Graph

Daily Weather History Graph

Search for Another Location

Airport or City:

Trip Planner

Search our weather history database for the weather conditions in past years. The results will help you decide how hot, cold, wet, or windy it might be!

Date:

Astronomy

Dec. 28, 2013 Rise Set
Actual Time 7:15 AM PST 4:30 PM PST
Civil Twilight 6:44 AM PST 5:02 PM PST
Nautical Twilight 6:09 AM PST 5:36 PM PST
Astronomical Twilight 5:36 AM PST 6:09 PM PST
Moon 2:56 AM PST (12/28) 1:26 PM PST (12/28)
Length of Visible Light 10h 17m
Length of Day
9h 15m
Waning Crescent, 18% of the Moon is Illuminated
Dec 28
Waning Crescent
Jan 1
New
Jan 7
First Quarter
Jan 15
Full
Jan 23
Last Quarter

Hourly Weather History & Observations

Time (PST) Temp. Windchill Dew Point Humidity Pressure Visibility Wind Dir Wind Speed Gust Speed Precip Events Conditions
12:56 AM 21.0 °F 16.2 °F 19.9 °F 96% 30.26 in 10.0 mi NE 3.5 mph - N/A   Partly Cloudy
1:56 AM 19.9 °F 14.9 °F 19.0 °F 96% 30.25 in 9.0 mi WNW 3.5 mph - N/A   Clear
2:56 AM 19.0 °F 10.0 °F 18.0 °F 96% 30.27 in 9.0 mi North 6.9 mph - N/A   Clear
3:56 AM 19.9 °F 12.1 °F 19.0 °F 96% 30.28 in 10.0 mi NNW 5.8 mph - N/A   Clear
4:56 AM 17.1 °F 8.7 °F 15.1 °F 92% 30.30 in 9.0 mi WNW 5.8 mph - N/A   Clear
5:56 AM 15.1 °F 4.2 °F 14.0 °F 95% 30.33 in 9.0 mi SSE 8.1 mph - N/A   Clear
6:56 AM 14.0 °F 5.1 °F 12.9 °F 95% 30.36 in 8.0 mi SE 5.8 mph - N/A   Clear
7:40 AM 12.0 °F - 10.0 °F 92% 30.25 in 7.0 mi Calm Calm - N/A   Scattered Clouds
7:49 AM 12.9 °F - 12.0 °F 96% 30.26 in 5.0 mi Calm Calm - N/A   Mostly Cloudy
7:56 AM 15.1 °F - 12.9 °F 91% 30.38 in 5.0 mi Calm Calm - N/A   Mostly Cloudy
8:09 AM 17.1 °F - 15.1 °F 92% 30.26 in 8.0 mi Calm Calm - N/A   Scattered Clouds
8:56 AM 21.9 °F - 19.9 °F 92% 30.38 in 6.0 mi Calm Calm - N/A   Clear
9:56 AM 28.0 °F - 25.0 °F 88% 30.39 in 9.0 mi Calm Calm - N/A   Clear
10:56 AM 34.0 °F - 26.1 °F 73% 30.37 in 10.0 mi Calm Calm - N/A   Clear
11:56 AM 36.0 °F 31.1 °F 27.0 °F 70% 30.36 in 10.0 mi NW 5.8 mph - N/A   Clear
12:45 PM 42.8 °F 35.4 °F 28.4 °F 57% 29.86 in 10.0 mi SW 15.0 mph 20.7 mph N/A   Clear
12:56 PM 41.0 °F 39.0 °F 27.0 °F 57% 30.33 in 10.0 mi Variable 3.5 mph - N/A   Clear
1:56 PM 41.0 °F 35.8 °F 28.0 °F 60% 30.32 in 10.0 mi WNW 8.1 mph - N/A   Clear
2:56 PM 43.0 °F 39.5 °F 26.1 °F 51% 30.33 in 10.0 mi NW 5.8 mph - N/A   Clear
3:56 PM 39.0 °F 34.0 °F 26.1 °F 60% 30.34 in 10.0 mi NNW 6.9 mph - N/A   Clear
4:56 PM 30.0 °F 23.2 °F 24.1 °F 79% 30.39 in 10.0 mi NW 6.9 mph - N/A   Clear
5:56 PM 28.9 °F 19.8 °F 21.9 °F 75% 30.41 in 10.0 mi NW 10.4 mph - N/A   Clear
6:56 PM 23.0 °F - 19.0 °F 85% 30.44 in 10.0 mi Calm Calm - N/A   Clear
7:56 PM 19.9 °F - 18.0 °F 92% 30.46 in 10.0 mi Calm Calm - N/A   Clear
8:56 PM 21.0 °F - 19.0 °F 92% 30.46 in 10.0 mi Calm Calm - N/A   Clear
9:56 PM 18.0 °F 11.1 °F 16.0 °F 92% 30.47 in 10.0 mi SSE 4.6 mph - N/A   Clear
10:56 PM 16.0 °F 10.4 °F 15.1 °F 96% 30.47 in 10.0 mi SE 3.5 mph - N/A   Clear
11:56 PM 16.0 °F 8.8 °F 14.0 °F 92% 30.46 in 10.0 mi NNE 4.6 mph - N/A   Clear